Regional Weather Roundup
Issued by NWS

Home | Current Version | Previous Version | Graphics & Text | Print | Product List | Glossary On
Versions: 1 2 3 4 5 6 7 8 9 10 11 12 13 14 15 16 17 18 19 20 21 22 23 24 25 26 27 28 29 30 31 32 33 34 35 36 37 38 39 40 41 42 43 44 45 46 47 48 49 50
000
ASUS43 KDMX 171707
RWRIA

WEATHER ROUNDUP FOR IOWA
NATIONAL WEATHER SERVICE DES MOINES IA
1200 PM CDT FRI APR 17 2015

NOTE: "FAIR" INDICATES FEW OR NO CLOUDS BELOW 12,000 FEET WITH NO
SIGNIFICANT WEATHER AND/OR OBSTRUCTIONS TO VISIBILITY.

* - THESE STATIONS ARE NOT NWS STATIONS...THUS NOT UNDER NWS
QUALITY CONTROL.  THEY ALSO DO NOT REPORT WEATHER SUCH
AS PRECIPITATION OR FOG.

IAZ001>003-012>014-020>022-031>034-043>046-171800-
   NORTHWEST IOWA

CITY           SKY/WX    TMP DP  RH WIND       PRES   REMARKS
CARROLL *      SUNNY     73  48  40 VRB6      30.09S
CHEROKEE *     SUNNY     72  50  46 NE5       30.09F
DENISON *      MOSUNNY   72  52  49 SE8G14    30.08S
LE MARS *      SUNNY     72  48  43 NE6       30.10F
ORANGE CITY *  SUNNY     70  46  43 CALM      30.10S
SHELDON *      SUNNY     72  46  40 VRB6G14   30.09F
SIOUX CITY     CLOUDY    68  52  56 CALM      30.10S
SPENCER        SUNNY     72  46  39 E5        30.10F
STORM LAKE *   SUNNY     72  48  43 NE7       30.11S
$$

IAZ055>058-069>071-079>083-090>094-171800-
   SOUTHWEST IOWA

CITY           SKY/WX    TMP DP  RH WIND       PRES   REMARKS
ATLANTIC *     MOSUNNY   73  54  49 E10       30.09S
AUDUBON *      MOSUNNY   73  52  46 E6        30.10F
CLARINDA *     MOSUNNY   73  55  53 SE6       30.09S
COUNCIL BLFS * SUNNY     72  54  53 E8        30.08F
CRESTON *      PTSUNNY   72  54  53 VRB7      30.09F
HARLAN  *      MOSUNNY   73  52  46 E10       30.12F
LAMONI         MOSUNNY   72  55  55 CALM      30.08F
RED OAK *      MOSUNNY   73  55  53 E7        30.07F
SHENANDOAH *   MOSUNNY   73  55  53 VRB7      30.08S
$$

IAZ047>049-059>061-072>074-084-171800-
   CENTRAL IOWA

CITY           SKY/WX    TMP DP  RH WIND       PRES   REMARKS
AMES           SUNNY     74  49  41 CALM      30.08F
ANKENY *       SUNNY     73  52  46 SE8       30.08F
CHARITON *     MOSUNNY   72  54  53 VRB6G12   30.08F
DES MOINES     MOSUNNY   75  50  41 E7        30.08F
GRINNELL*      MOSUNNY   73  50  43 CALM      30.08F
KNOXVILLE *    MOSUNNY   72  52  49 CALM      30.07F
MARSHALLTOWN   SUNNY     73  50  44 CALM      30.07F
PELLA *        SUNNY     75  55  50 CALM      30.09F
PERRY *          N/A     73  50  43 SE6       30.08F
$$

IAZ004>006-015-016-023>025-035-036-171800-
   NORTH CENTRAL IOWA

CITY           SKY/WX    TMP DP  RH WIND       PRES   REMARKS
ALGONA *       SUNNY     72  48  43 NE8G16    30.10F
CLARION *      SUNNY     73  48  40 N6G12     30.09F
ESTHERVILLE    SUNNY     69  45  41 VRB3      30.10F
FORT DODGE *   SUNNY     72  48  43 NE5       30.10F
MASON CITY     SUNNY     73  48  41 NW5       30.10F
FOREST CITY *  SUNNY     70  46  43 N8        30.10F
IOWA FALLS *     N/A     73  46  38 NW7       30.09F
$$

IAZ007>011-017>019-026>030-037>042-050>054-066-171800-
   NORTHEAST IOWA

CITY           SKY/WX    TMP DP  RH WIND       PRES   REMARKS
CEDAR RAPIDS   MOSUNNY   75  50  41 CALM      30.07F
CHARLES CITY * SUNNY     73  48  40 NW8       30.09F
CLINTON *      MOSUNNY   75  48  38 W7        30.10F
DECORAH *      SUNNY     72  48  43 CALM      30.08S
DUBUQUE        MOSUNNY   74  47  38 CALM      30.08F
MONTICELLO *   SUNNY     75  48  38 VRB3      30.07F
OELWEIN *      SUNNY     73  48  40 VRB3      30.08F
WATERLOO       SUNNY     75  50  41 VRB6      30.07F
$$

IAZ064-065-067-068-078-171800-
   EAST CENTRAL IOWA

CITY           SKY/WX    TMP DP  RH WIND       PRES   REMARKS
DAVENPORT      MOSUNNY   74  48  39 VRB3      30.08F
IOWA CITY      SUNNY     74  52  46 CALM      30.09F
MT. PLEASANT * PTSUNNY   75  50  41 NW3       30.08F
MUSCATINE *    SUNNY     75  50  41 VRB3      30.08F
QUAD CITIES    SUNNY     75  49  39 MISG      30.07F
$$

IAZ062-063-075>077-085>089-095>099-171800-
   SOUTHEAST IOWA

CITY           SKY/WX    TMP DP  RH WIND       PRES   REMARKS
BURLINGTON     MOSUNNY   74  53  48 NW3       30.07F
FAIRFIELD *    PTSUNNY   72  50  46 N3        30.08F
FORT MADISON * CLOUDY    75  54  46 SE5       30.08F
KEOKUK *       CLOUDY    73  55  53 CALM      30.07F
OSKALOOSA *      N/A     73  50  43 E5        30.08F
CENTERVILLE *  MOSUNNY   73  54  49 E3        30.09F
OTTUMWA        CLOUDY    74  50  42 CALM      30.08F
WASHINGTON *   PTSUNNY   75  52  43 VRB3      30.08F
$$

ABBREVIATIONS USED IN REMARKS
   TC - TEMPERATURES IN CELSIUS
  WCI - WIND CHILL INDEX
   HX - HEAT INDEX
  VSB - VISIBILITY
$$




USA.gov is the U.S. government's official web portal to all federal, state and local government web resources and services.